DW4465 Weather Reports


time (UTC)temp
F
wind
direction
speed
knots
gust
knots
rain 1hr
in
rain 24hr
in
rain mn
in
humidity
%
barometer
mb
20260831220054 82 169 4.3 8.7 0.00 0.00 0.00 59 1012.9
20260831214549 82 198 3.5 7.8 0.00 0.00 0.00 58 1013.0
20260831213048 82 196 4.3 9.6 0.00 0.00 0.00 60 1013.3
20260831211554 82 198 4.3 7.8 0.00 0.00 0.00 61 1013.4
20260831210049 82 154 5.2 9.6 0.00 0.00 0.00 61 1013.4
20260831204555 82 202 2.6 8.7 0.00 0.00 0.00 61 1013.4
20260831203059 81 185 1.7 9.6 0.00 0.00 0.00 63 1013.4
20260831201547 82 216 1.7 8.7 0.00 0.00 0.00 63 1013.6
20260831200051 82 151 3.5 7.8 0.00 0.00 0.00 63 1013.6
20260831194549 82 191 3.5 7.8 0.00 0.00 0.00 64 1013.6
20260831193051 82 223 2.6 9.6 0.00 0.00 0.00 65 1013.8
20260831191547 82 180 3.5 8.7 0.00 0.00 0.00 63 1013.8
20260831190056 82 203 2.6 8.7 0.00 0.00 0.00 63 1013.9
20260831184551 82 176 1.7 5.2 0.00 0.00 0.00 63 1014.1
20260831183046 81 198 0.9 7.0 0.00 0.00 0.00 64 1014.0
20260831181554 81 185 1.7 7.8 0.00 0.00 0.00 66 1014.1
20260831180044 81 156 2.6 7.8 0.00 0.00 0.00 65 1013.9
20260831174552 81 167 1.7 4.3 0.00 0.00 0.00 65 1014.0
20260831173057 79 194 1.7 6.1 0.00 0.00 0.00 68 1014.0
20260831171544 78 212 0.9 3.5 0.00 0.00 0.00 71 1013.9
20260831170052 77 142 1.7 4.3 0.00 0.00 0.00 75 1013.8
20260831164549 75 333 0.0 2.6 0.00 0.00 0.00 78 1013.8
20260831163048 74 0 0.0 2.6 0.00 0.00 0.00 81 1013.7
20260831161603 73 187 0.9 3.5 0.00 0.00 0.00 83 1013.7
20260831160117 72 196 1.7 3.5 0.00 0.00 0.00 84 1013.7
20260831154618 72 186 0.0 2.6 0.00 0.00 0.00 85 1013.6
20260831153123 71 215 0.0 1.7 0.00 0.00 0.00 86 1013.6
20260831151558 70 0 0.0 0.9 0.00 0.00 0.00 86 1013.4
20260831150053 69 0 0.0 0.9 0.00 0.00 0.00 86 1013.5
20260831144549 68 0 0.0 0.9 0.00 0.00 0.00 86 1013.3
20260831143050 68 0 0.0 0.0 0.00 0.00 0.00 86 1013.2
20260831141557 67 0 0.0 0.9 0.00 0.00 0.00 85 1012.9
20260831140052 67 0 0.0 0.9 0.00 0.00 0.00 85 1012.9
20260831134548 66 0 0.0 0.0 0.00 0.00 0.00 85 1012.7
20260831133047 66 0 0.0 0.0 0.00 0.00 0.00 84 1012.6
20260831131550 67 0 0.0 0.0 0.00 0.00 0.00 84 1012.4
20260831130059 67 0 0.0 0.0 0.00 0.00 0.00 84 1012.4
20260831124553 67 0 0.0 0.0 0.00 0.00 0.00 84 1012.2
20260831123051 67 0 0.0 0.0 0.00 0.00 0.00 83 1012.1
20260831121549 67 0 0.0 0.0 0.00 0.00 0.00 83 1012.2
20260831120139 66 0 0.0 0.0 0.00 0.00 0.00 82 1012.1
20260831114548 67 0 0.0 0.0 0.00 0.00 0.00 82 1012.2
20260831113049 67 0 0.0 0.0 0.00 0.00 0.00 82 1012.2
20260831111559 67 0 0.0 0.0 0.00 0.00 0.00 81 1012.1
20260831110049 67 0 0.0 0.0 0.00 0.00 0.00 81 1012.2
20260831104549 67 0 0.0 0.0 0.00 0.00 0.00 80 1012.2
20260831103049 67 0 0.0 0.0 0.00 0.00 0.00 80 1012.3
20260831101606 67 0 0.0 0.0 0.00 0.00 0.00 80 1012.2
20260831100051 67 0 0.0 0.0 0.00 0.00 0.00 79 1012.2
20260831094601 68 0 0.0 0.0 0.00 0.00 0.00 79 1012.4
20260831093058 68 0 0.0 0.0 0.00 0.00 0.00 79 1012.3
20260831091554 68 0 0.0 0.0 0.00 0.00 0.00 78 1012.3
20260831090047 68 0 0.0 0.0 0.00 0.00 0.00 78 1012.3
20260831084602 69 0 0.0 0.0 0.00 0.00 0.00 77 1012.2
20260831083059 69 0 0.0 0.0 0.00 0.00 0.00 77 1012.3
20260831081557 69 0 0.0 0.9 0.00 0.00 0.00 77 1012.3
20260831080049 69 0 0.0 0.0 0.00 0.00 0.00 76 1012.3
20260831074559 70 0 0.0 0.0 0.00 0.00 0.00 76 1012.3
20260831073055 70 0 0.0 0.0 0.00 0.00 0.00 75 1012.3
20260831071552 70 0 0.0 0.0 0.00 0.00 0.00 75 1012.2
20260831070108 70 0 0.0 0.0 0.00 0.00 0.00 74 1012.1
20260831064553 71 0 0.0 0.0 0.00 0.00 0.00 74 1012.1
20260831063050 71 0 0.0 0.9 0.00 0.00 0.00 74 1012.1
20260831061546 72 291 0.0 0.9 0.00 0.00 0.00 73 1012.2
20260831060109 72 0 0.0 1.7 0.00 0.00 0.00 73 1012.1
20260831054554 72 0 0.0 0.9 0.00 0.00 0.00 71 1012.2
20260831053051 73 0 0.0 0.9 0.00 0.00 0.00 71 1012.3
20260831051603 73 0 0.0 0.9 0.00 0.00 0.00 70 1012.2
20260831050049 73 291 0.0 2.6 0.00 0.00 0.00 69 1012.2
20260831044554 73 0 0.0 0.9 0.00 0.00 0.00 68 1012.3
20260831043048 74 321 0.0 2.6 0.00 0.00 0.00 68 1012.0
20260831041544 74 0 0.0 2.6 0.00 0.00 0.00 67 1011.8
20260831040058 74 0 0.0 2.6 0.00 0.00 0.00 67 1011.7
20260831034549 74 240 0.9 2.6 0.00 0.00 0.00 67 1011.6
20260831033050 74 303 0.9 3.5 0.00 0.00 0.00 67 1011.3
20260831031558 74 0 0.9 6.1 0.00 0.00 0.00 67 1010.8
20260831030051 75 289 0.9 6.1 0.00 0.00 0.00 68 1010.8
20260831024611 75 0 0.9 5.2 0.00 0.00 0.00 69 1010.7
20260831023050 76 298 1.7 7.8 0.00 0.00 0.00 70 1010.7
20260831021559 77 303 0.9 3.5 0.00 0.00 0.00 70 1010.6
20260831020050 78 0 0.9 6.1 0.00 0.00 0.00 68 1010.5
20260831014557 80 269 0.9 4.3 0.00 0.00 0.00 67 1010.6
20260831013056 80 268 0.9 5.2 0.00 0.00 0.00 66 1010.5
20260831011551 82 0 0.9 4.3 0.00 0.00 0.00 65 1010.4
20260831010121 82 277 1.7 5.2 0.00 0.00 0.00 65 1010.3
20260831004558 82 177 2.6 7.0 0.00 0.00 0.00 65 1010.3
20260831003055 83 144 4.3 9.6 0.00 0.00 0.00 64 1010.5
20260831001558 84 167 4.3 10.4 0.00 0.00 0.00 62 1010.4
20260831000054 84 177 4.3 9.6 0.00 0.00 0.00 60 1010.4
20260830234549 84 184 4.3 9.6 0.00 0.00 0.00 61 1010.4
20260830233045 84 165 3.5 9.6 0.00 0.00 0.00 61 1010.3
20260830231558 84 226 2.6 9.6 0.00 0.00 0.00 61 1010.5
20260830230055 84 183 3.5 8.7 0.00 0.00 0.00 60 1010.6
20260830224555 85 217 2.6 9.6 0.00 0.00 0.00 60 1010.7
20260830223045 85 155 4.3 8.7 0.00 0.00 0.00 59 1010.9
20260830221555 85 176 3.5 7.8 0.00 0.00 0.00 60 1011.1